Glasgow, KY

2:25 AM CDT on August 29, 2016 (GMT -0500)
Glasgow Municipal

Weather History for KGLW - December, 2013

Change the Weather History Date:

Wednesday, December 4, 2013

  Actual Average Record
Temperature  
Mean Temperature 62 °F -  
Max Temperature 71 °F 51 °F 74 °F (1982)
Min Temperature 52 °F 32 °F 15 °F (2006)
Degree Days  
Heating Degree Days 4    
Growing Degree Days 12 (Base 50)    
Moisture  
Dew Point 56 °F    
Average Humidity 77    
Maximum Humidity 100    
Minimum Humidity 56    
Precipitation  
Precipitation 0.00 in - - ()
Sea Level Pressure  
Sea Level Pressure 29.81 in    
Wind  
Wind Speed 7 mph (South)    
Max Wind Speed 18 mph    
Max Gust Speed 30 mph    
Visibility 9 miles    
Events      
Averages and records for this station are not official NWS values.
T = Trace of Precipitation, MM = Missing Value Source: NWS Daily Summary

Daily Weather History Graph

Daily Weather History Graph

Search for Another Location

Airport or City:

Trip Planner

Search our weather history database for the weather conditions in past years. The results will help you decide how hot, cold, wet, or windy it might be!

Date:

Astronomy

Dec. 04, 2013 Rise Set
Actual Time 6:41 AM CST 4:26 PM CST
Civil Twilight 6:12 AM CST 4:55 PM CST
Nautical Twilight 5:40 AM CST 5:27 PM CST
Astronomical Twilight 5:09 AM CST 5:59 PM CST
Moon 8:09 AM CST (12/4) 6:35 PM CST (12/4)
Length of Visible Light 10h 42m
Length of Day
9h 45m
Waxing Crescent, 4% of the Moon is Illuminated
Dec 4
Waxing Crescent
Dec 9
First Quarter
Dec 17
Full
Dec 25
Last Quarter
Jan 1
New

Hourly Weather History & Observations

Time (CST) Temp. Dew Point Humidity Pressure Visibility Wind Dir Wind Speed Gust Speed Precip Events Conditions
12:15 AM 52.0 °F 52.0 °F 100% 29.81 in 5.0 mi SE 4.6 mph - N/A   Overcast
12:35 AM 52.2 °F 52.2 °F 100% 29.81 in 5.0 mi SE 4.6 mph - N/A   Overcast
12:55 AM 52.5 °F 52.5 °F 100% 29.80 in 5.0 mi SE 4.6 mph - N/A   Overcast
1:15 AM 52.9 °F 52.9 °F 100% 29.80 in 7.0 mi SSE 3.5 mph - N/A   Overcast
1:35 AM 53.4 °F 53.2 °F 99% 29.81 in 7.0 mi South 3.5 mph - N/A   Overcast
1:55 AM 53.8 °F 53.4 °F 99% 29.81 in 5.0 mi SSE 3.5 mph - N/A   Overcast
2:15 AM 54.0 °F 53.6 °F 99% 29.82 in 7.0 mi Calm Calm - N/A   Overcast
2:35 AM 54.1 °F 53.4 °F 97% 29.83 in 7.0 mi Calm Calm - N/A   Overcast
2:55 AM 54.3 °F 53.6 °F 97% 29.83 in 5.0 mi Calm Calm - N/A   Overcast
3:15 AM 54.5 °F 54.5 °F 100% 29.83 in 5.0 mi SSE 3.5 mph - N/A   Overcast
3:35 AM 55.0 °F 55.0 °F 100% 29.81 in 5.0 mi SSE 3.5 mph - N/A   Overcast
3:55 AM 55.4 °F 55.4 °F 100% 29.81 in 4.0 mi SSE 3.5 mph - N/A   Overcast
4:15 AM 55.6 °F 55.6 °F 100% 29.80 in 4.0 mi SSE 5.8 mph - N/A   Overcast
4:35 AM 56.3 °F 56.3 °F 100% 29.80 in 4.0 mi SSE 3.5 mph - N/A   Overcast
4:55 AM 56.5 °F 56.5 °F 100% 29.80 in 5.0 mi SSE 5.8 mph - N/A   Overcast
5:15 AM 57.0 °F 57.0 °F 100% 29.81 in 5.0 mi South 4.6 mph - N/A   Overcast
5:35 AM 57.7 °F 57.2 °F 98% 29.81 in 5.0 mi South 5.8 mph - N/A   Overcast
5:55 AM 58.3 °F 57.0 °F 96% 29.83 in 7.0 mi South 6.9 mph - N/A   Overcast
6:15 AM 59.0 °F 57.0 °F 93% 29.83 in 7.0 mi South 6.9 mph - N/A   Overcast
6:35 AM 59.4 °F 57.6 °F 94% 29.83 in 7.0 mi South 5.8 mph - N/A   Overcast
6:55 AM 59.5 °F 58.1 °F 95% 29.84 in 7.0 mi South 8.1 mph - N/A   Overcast
7:15 AM 59.9 °F 58.3 °F 94% 29.83 in 7.0 mi South 6.9 mph - N/A   Overcast
7:35 AM 59.9 °F 58.3 °F 94% 29.83 in 7.0 mi SSE 5.8 mph - N/A   Overcast
7:55 AM 60.4 °F 58.3 °F 93% 29.84 in 7.0 mi South 6.9 mph - N/A   Overcast
8:15 AM 61.2 °F 57.9 °F 89% 29.84 in 10.0 mi South 9.2 mph - N/A   Overcast
8:35 AM 61.9 °F 57.0 °F 84% 29.84 in 10.0 mi South 9.2 mph 17.3 mph N/A   Mostly Cloudy
8:55 AM 63.1 °F 57.0 °F 80% 29.84 in 10.0 mi South 11.5 mph 18.4 mph N/A   Mostly Cloudy
9:15 AM 63.5 °F 57.2 °F 80% 29.84 in 10.0 mi South 10.4 mph 18.4 mph N/A   Mostly Cloudy
9:35 AM 64.0 °F 57.4 °F 79% 29.84 in 10.0 mi South 10.4 mph 18.4 mph N/A   Overcast
9:55 AM 64.8 °F 57.6 °F 77% 29.83 in 10.0 mi South 9.2 mph 17.3 mph N/A   Overcast
10:15 AM 64.6 °F 57.6 °F 78% 29.83 in 10.0 mi South 8.1 mph 17.3 mph N/A   Overcast
10:35 AM 65.3 °F 57.9 °F 77% 29.83 in 10.0 mi South 9.2 mph 17.3 mph N/A   Overcast
10:55 AM 66.6 °F 58.1 °F 74% 29.81 in 10.0 mi SSW 10.4 mph - N/A   Overcast
11:15 AM 67.1 °F 58.1 °F 73% 29.80 in 10.0 mi SSW 12.7 mph 20.7 mph N/A   Overcast
11:35 AM 68.2 °F 57.7 °F 69% 29.79 in 10.0 mi South 10.4 mph 18.4 mph N/A   Overcast
11:55 AM 69.4 °F 57.6 °F 66% 29.78 in 10.0 mi SSW 12.7 mph 21.9 mph N/A   Overcast
12:15 PM 70.3 °F 56.8 °F 62% 29.78 in 10.0 mi SSW 13.8 mph 25.3 mph N/A   Overcast
12:35 PM 70.5 °F 55.9 °F 60% 29.77 in 10.0 mi SSW 12.7 mph 20.7 mph N/A   Overcast
12:55 PM 70.2 °F 55.8 °F 60% 29.76 in 10.0 mi SSW 15.0 mph 20.7 mph N/A   Mostly Cloudy
1:15 PM 70.9 °F 55.8 °F 59% 29.76 in 10.0 mi SSW 9.2 mph 17.3 mph N/A   Scattered Clouds
1:35 PM 71.8 °F 55.4 °F 56% 29.76 in 10.0 mi SSW 16.1 mph 25.3 mph N/A   Scattered Clouds
1:55 PM 71.6 °F 55.4 °F 57% 29.75 in 10.0 mi South 13.8 mph 18.4 mph N/A   Scattered Clouds
2:15 PM 71.1 °F 55.6 °F 58% 29.75 in 10.0 mi South 12.7 mph 18.4 mph N/A   Scattered Clouds
2:35 PM 71.1 °F 55.4 °F 58% 29.74 in 10.0 mi South 9.2 mph - N/A   Scattered Clouds
2:55 PM 71.1 °F 54.9 °F 56% 29.75 in 10.0 mi SSW 11.5 mph 20.7 mph N/A   Scattered Clouds
3:15 PM 71.1 °F 54.9 °F 56% 29.75 in 10.0 mi SSW 10.4 mph 16.1 mph N/A   Clear
3:35 PM 70.9 °F 54.7 °F 56% 29.75 in 10.0 mi SSW 11.5 mph 18.4 mph N/A   Clear
3:55 PM 70.7 °F 54.5 °F 56% 29.76 in 10.0 mi SSW 10.4 mph 18.4 mph N/A   Clear
4:15 PM 70.3 °F 54.1 °F 56% 29.76 in 10.0 mi South 11.5 mph 16.1 mph N/A   Clear
4:35 PM 69.8 °F 54.1 °F 57% 29.76 in 10.0 mi South 10.4 mph 17.3 mph N/A   Clear
4:55 PM 69.6 °F 54.1 °F 58% 29.77 in 10.0 mi South 11.5 mph 17.3 mph N/A   Clear
5:15 PM 69.3 °F 54.0 °F 58% 29.77 in 10.0 mi SSW 10.4 mph 21.9 mph N/A   Clear
5:35 PM 69.3 °F 54.1 °F 59% 29.78 in 10.0 mi South 15.0 mph 18.4 mph N/A   Clear
5:55 PM 69.3 °F 54.5 °F 59% 29.78 in 10.0 mi SSW 12.7 mph 20.7 mph N/A   Clear
6:15 PM 69.3 °F 54.7 °F 60% 29.78 in 10.0 mi South 10.4 mph 18.4 mph N/A   Clear
6:35 PM 69.1 °F 54.9 °F 60% 29.79 in 10.0 mi SSW 15.0 mph 21.9 mph N/A   Clear
6:55 PM 68.5 °F 55.2 °F 62% 29.79 in 10.0 mi SSW 11.5 mph 18.4 mph N/A   Clear
7:15 PM 68.4 °F 55.9 °F 64% 29.80 in 10.0 mi SSW 12.7 mph 18.4 mph N/A   Clear
7:35 PM 68.4 °F 56.5 °F 66% 29.80 in 10.0 mi SSW 15.0 mph 26.5 mph N/A   Clear
7:55 PM 68.4 °F 57.0 °F 67% 29.80 in 10.0 mi South 15.0 mph 23.0 mph N/A   Clear
8:15 PM 68.4 °F 57.4 °F 68% 29.81 in 10.0 mi SSW 18.4 mph 26.5 mph N/A   Clear
8:35 PM 68.4 °F 57.7 °F 69% 29.81 in 10.0 mi SSW 12.7 mph 26.5 mph N/A   Clear
8:55 PM 68.4 °F 58.1 °F 70% 29.81 in 10.0 mi SSW 13.8 mph 29.9 mph N/A   Clear
9:15 PM 68.4 °F 58.3 °F 70% 29.82 in 10.0 mi SSW 17.3 mph 24.2 mph N/A   Clear
9:35 PM 68.2 °F 58.6 °F 71% 29.83 in 10.0 mi SSW 12.7 mph 27.6 mph N/A   Scattered Clouds
9:55 PM 68.2 °F 59.0 °F 72% 29.85 in 10.0 mi SW 10.4 mph 18.4 mph N/A   Mostly Cloudy
10:15 PM 68.2 °F 59.2 °F 73% 29.84 in 10.0 mi SSW 10.4 mph 16.1 mph N/A   Overcast
10:35 PM 68.2 °F 59.4 °F 73% 29.85 in 10.0 mi SSW 11.5 mph 19.6 mph N/A   Overcast
10:55 PM 68.0 °F 59.5 °F 74% 29.85 in 10.0 mi SW 12.7 mph 19.6 mph N/A   Overcast
11:15 PM 67.6 °F 59.7 °F 76% 29.87 in 10.0 mi SSW 12.7 mph 20.7 mph N/A   Overcast
11:35 PM 67.3 °F 59.7 °F 77% 29.87 in 10.0 mi SSW 11.5 mph - N/A   Mostly Cloudy
11:55 PM 67.3 °F 59.9 °F 77% 29.87 in 10.0 mi SSW 11.5 mph 18.4 mph N/A   Mostly Cloudy